When you browse on this site, cookies collect data to enhance your experience and personalize the content and advertising you see.
Visit our Privacy Policy to learn more. By continuing to use the site, you agree to this use of cookies and data.
  • In Deutschland
  • Länderverzeichnis
  • Für 7 Tage
  • Wassertemperatur
  • Wetterkarte
  • Widgets
  • user-avatar
    Anmelden

    Stündliche Wetter Oksford

    Heute, 16 Oktober, Mittwoch

    Zeit Temperatur Niederschläge Wind Luftdruck Luftfeuchtigkeit
    00:00 +10°C° 0 mm 4 m/S 747 mmHg 92%
    01:00 +10°C° 0.3 mm 5 m/S 746 mmHg 93%
    02:00 +10°C° 0.3 mm 6 m/S 745 mmHg 94%
    03:00 +11°C° 0.3 mm 6 m/S 744 mmHg 94%
    04:00 +11°C° 0.4 mm 6 m/S 744 mmHg 95%
    05:00 +13°C° 0.4 mm 5 m/S 743 mmHg 96%
    06:00 +13°C° 0.4 mm 5 m/S 743 mmHg 96%
    07:00 +13°C° 0.3 mm 5 m/S 743 mmHg 94%
    08:00 +13°C° 0.3 mm 5 m/S 743 mmHg 91%
    09:00 +13°C° 0.3 mm 6 m/S 744 mmHg 88%
    10:00 +13°C° 0 mm 6 m/S 744 mmHg 84%
    11:00 +13°C° 0 mm 6 m/S 744 mmHg 80%
    12:00 +13°C° 0 mm 6 m/S 745 mmHg 77%
    13:00 +13°C° 0 mm 5 m/S 745 mmHg 75%
    14:00 +13°C° 0 mm 5 m/S 746 mmHg 74%
    15:00 +13°C° 0 mm 4 m/S 746 mmHg 73%
    16:00 +12°C° 0 mm 4 m/S 746 mmHg 76%
    17:00 +11°C° 0 mm 3 m/S 747 mmHg 79%
    18:00 +10°C° 0 mm 2 m/S 747 mmHg 83%
    19:00 +9°C° 0 mm 2 m/S 747 mmHg 84%
    20:00 +8°C° 0 mm 2 m/S 748 mmHg 86%
    21:00 +8°C° 0 mm 2 m/S 748 mmHg 88%
    22:00 +8°C° 0 mm 2 m/S 749 mmHg 88%
    23:00 +7°C° 0 mm 2 m/S 749 mmHg 88%

    Morgen, 17 Oktober, Donnerstag

    Zeit Temperatur Niederschläge Wind Luftdruck Luftfeuchtigkeit
    00:00 +7°C° 0 mm 2 m/S 749 mmHg 88%
    01:00 +7°C° 0 mm 2 m/S 749 mmHg 89%
    02:00 +7°C° 0 mm 2 m/S 749 mmHg 89%
    03:00 +6°C° 0 mm 2 m/S 749 mmHg 90%
    04:00 +7°C° 0 mm 3 m/S 749 mmHg 90%
    05:00 +7°C° 0 mm 3 m/S 749 mmHg 90%
    06:00 +7°C° 0 mm 3 m/S 749 mmHg 89%
    07:00 +8°C° 0 mm 3 m/S 749 mmHg 87%
    08:00 +8°C° 0 mm 4 m/S 749 mmHg 84%
    09:00 +11°C° 0 mm 4 m/S 749 mmHg 81%
    10:00 +10°C° 0.2 mm 5 m/S 749 mmHg 78%
    11:00 +12°C° 0.2 mm 5 m/S 749 mmHg 74%
    12:00 +13°C° 0.2 mm 6 m/S 749 mmHg 71%
    13:00 +13°C° 0.1 mm 6 m/S 748 mmHg 71%
    14:00 +13°C° 0.1 mm 6 m/S 748 mmHg 72%
    15:00 +13°C° 0.1 mm 6 m/S 748 mmHg 72%
    16:00 +11°C° 0 mm 6 m/S 748 mmHg 77%
    17:00 +10°C° 0 mm 5 m/S 748 mmHg 81%
    18:00 +10°C° 0 mm 4 m/S 748 mmHg 85%
    19:00 +9°C° 0 mm 5 m/S 748 mmHg 85%
    20:00 +9°C° 0 mm 5 m/S 748 mmHg 85%
    21:00 +9°C° 0 mm 5 m/S 748 mmHg 85%
    22:00 +9°C° 0.3 mm 5 m/S 747 mmHg 87%
    23:00 +9°C° 0.3 mm 5 m/S 747 mmHg 89%

    übermorgen, 18 Oktober, Freitag

    Zeit Temperatur Niederschläge Wind Luftdruck Luftfeuchtigkeit
    00:00 +9°C° 0.3 mm 5 m/S 747 mmHg 91%
    01:00 +9°C° 0.9 mm 5 m/S 746 mmHg 90%
    02:00 +9°C° 0.9 mm 5 m/S 746 mmHg 89%
    03:00 +9°C° 0.9 mm 5 m/S 745 mmHg 89%
    04:00 +9°C° 0.2 mm 5 m/S 745 mmHg 89%
    05:00 +8°C° 0.2 mm 5 m/S 745 mmHg 89%
    06:00 +8°C° 0.2 mm 5 m/S 745 mmHg 89%
    07:00 +8°C° 0.1 mm 6 m/S 745 mmHg 87%
    08:00 +9°C° 0.1 mm 6 m/S 745 mmHg 85%
    09:00 +9°C° 0.1 mm 6 m/S 746 mmHg 83%
    10:00 +10°C° 0.1 mm 7 m/S 746 mmHg 80%
    11:00 +11°C° 0.1 mm 8 m/S 746 mmHg 77%
    12:00 +11°C° 0.1 mm 8 m/S 746 mmHg 73%
    13:00 +11°C° 0.1 mm 8 m/S 746 mmHg 73%
    14:00 +11°C° 0.1 mm 7 m/S 746 mmHg 73%
    15:00 +12°C° 0.1 mm 7 m/S 746 mmHg 73%
    16:00 +11°C° 0 mm 6 m/S 746 mmHg 77%
    17:00 +10°C° 0 mm 5 m/S 745 mmHg 81%
    18:00 +9°C° 0 mm 5 m/S 745 mmHg 86%
    19:00 +10°C° 0 mm 4 m/S 745 mmHg 87%
    20:00 +8°C° 0 mm 4 m/S 745 mmHg 87%
    21:00 +8°C° 0 mm 4 m/S 745 mmHg 88%
    22:00 +8°C° 0 mm 4 m/S 745 mmHg 89%
    23:00 +8°C° 0 mm 4 m/S 745 mmHg 89%

    19 Oktober, Samstag

    Zeit Temperatur Niederschläge Wind Luftdruck Luftfeuchtigkeit
    00:00 +9°C° 0 mm 3 m/S 744 mmHg 90%
    01:00 +9°C° 0 mm 3 m/S 744 mmHg 91%
    02:00 +9°C° 0 mm 3 m/S 743 mmHg 91%
    03:00 +9°C° 0 mm 3 m/S 743 mmHg 92%
    04:00 +9°C° 0.1 mm 3 m/S 743 mmHg 92%
    05:00 +8°C° 0.1 mm 3 m/S 742 mmHg 93%
    06:00 +8°C° 0.1 mm 3 m/S 742 mmHg 93%
    07:00 +9°C° 0 mm 3 m/S 742 mmHg 90%
    08:00 +10°C° 0 mm 4 m/S 742 mmHg 87%
    09:00 +11°C° 0 mm 4 m/S 742 mmHg 84%
    10:00 +10°C° 0.1 mm 5 m/S 742 mmHg 80%
    11:00 +12°C° 0.1 mm 5 m/S 742 mmHg 76%
    12:00 +13°C° 0.1 mm 6 m/S 742 mmHg 72%
    13:00 +11°C° 0.4 mm 6 m/S 741 mmHg 74%
    14:00 +11°C° 0.4 mm 7 m/S 741 mmHg 76%
    15:00 +11°C° 0.4 mm 7 m/S 741 mmHg 77%
    16:00 +10°C° 0.1 mm 7 m/S 742 mmHg 80%
    17:00 +9°C° 0.1 mm 7 m/S 742 mmHg 83%
    18:00 +8°C° 0.1 mm 7 m/S 742 mmHg 85%
    19:00 +8°C° 0 mm 6 m/S 743 mmHg 86%
    20:00 +8°C° 0 mm 6 m/S 743 mmHg 88%
    21:00 +7°C° 0 mm 6 m/S 743 mmHg 89%
    22:00 +7°C° 0 mm 5 m/S 744 mmHg 90%
    23:00 +6°C° 0 mm 5 m/S 744 mmHg 91%

    20 Oktober, Sonntag

    Zeit Temperatur Niederschläge Wind Luftdruck Luftfeuchtigkeit
    00:00 +6°C° 0 mm 4 m/S 744 mmHg 92%
    01:00 +6°C° 0 mm 4 m/S 745 mmHg 93%
    02:00 +5°C° 0 mm 3 m/S 745 mmHg 94%
    03:00 +5°C° 0 mm 3 m/S 745 mmHg 94%
    04:00 +6°C° 0 mm 2 m/S 746 mmHg 94%
    05:00 +6°C° 0 mm 2 m/S 746 mmHg 94%
    06:00 +6°C° 0 mm 2 m/S 746 mmHg 93%
    07:00 +6°C° 0 mm 2 m/S 747 mmHg 91%
    08:00 +8°C° 0 mm 1 m/S 748 mmHg 88%
    09:00 +9°C° 0 mm 1 m/S 748 mmHg 85%
    10:00 +10°C° 0 mm 1 m/S 749 mmHg 81%
    11:00 +11°C° 0 mm 1 m/S 749 mmHg 78%
    12:00 +13°C° 0 mm 1 m/S 750 mmHg 74%
    13:00 +13°C° 0 mm 1 m/S 750 mmHg 74%
    14:00 +13°C° 0 mm 1 m/S 750 mmHg 73%
    15:00 +13°C° 0 mm 1 m/S 750 mmHg 73%
    16:00 +12°C° 0 mm 1 m/S 751 mmHg 78%
    17:00 +10°C° 0 mm 2 m/S 751 mmHg 82%
    18:00 +9°C° 0 mm 2 m/S 752 mmHg 87%
    19:00 +8°C° 0 mm 2 m/S 752 mmHg 89%
    20:00 +8°C° 0 mm 2 m/S 753 mmHg 91%
    21:00 +7°C° 0 mm 2 m/S 753 mmHg 92%
    22:00 +7°C° 0 mm 2 m/S 754 mmHg 92%
    23:00 +7°C° 0 mm 2 m/S 754 mmHg 92%

    21 Oktober, Montag

    Zeit Temperatur Niederschläge Wind Luftdruck Luftfeuchtigkeit
    00:00 +7°C° 0 mm 2 m/S 754 mmHg 92%
    01:00 +6°C° 0 mm 2 m/S 755 mmHg 93%
    02:00 +6°C° 0 mm 2 m/S 755 mmHg 93%
    03:00 +6°C° 0 mm 2 m/S 755 mmHg 94%
    04:00 +6°C° 0 mm 2 m/S 755 mmHg 94%
    05:00 +6°C° 0 mm 2 m/S 756 mmHg 95%
    06:00 +6°C° 0 mm 2 m/S 757 mmHg 95%
    07:00 +7°C° 0 mm 3 m/S 757 mmHg 92%
    08:00 +8°C° 0 mm 3 m/S 758 mmHg 89%
    09:00 +8°C° 0 mm 4 m/S 758 mmHg 87%
    10:00 +8°C° 0 mm 4 m/S 759 mmHg 85%
    11:00 +10°C° 0 mm 4 m/S 759 mmHg 84%
    12:00 +10°C° 0 mm 4 m/S 760 mmHg 83%
    13:00 +10°C° 0 mm 4 m/S 760 mmHg 83%
    14:00 +11°C° 0 mm 4 m/S 760 mmHg 83%
    15:00 +11°C° 0 mm 4 m/S 760 mmHg 83%
    16:00 +10°C° 0 mm 3 m/S 760 mmHg 85%
    17:00 +9°C° 0 mm 3 m/S 761 mmHg 87%
    18:00 +9°C° 0 mm 3 m/S 761 mmHg 89%
    19:00 +8°C° 0 mm 3 m/S 761 mmHg 90%
    20:00 +7°C° 0 mm 2 m/S 762 mmHg 91%
    21:00 +7°C° 0 mm 2 m/S 762 mmHg 92%
    22:00 +7°C° 0 mm 2 m/S 762 mmHg 93%
    23:00 +6°C° 0 mm 2 m/S 762 mmHg 93%
    Mehr zeigen